Juliana Airport, Sint Maarten

5:23 AM AST on May 24, 2018 (GMT -0400)
Princess Juliana International

Weather History for TNCM - November, 2014

Change the Weather History Date:

Friday, November 28, 2014

  Actual Average Record
Temperature  
Mean Temperature 80 °F -  
Max Temperature 85 °F 82 °F 91 °F (1999)
Min Temperature 75 °F 73 °F 71 °F (2016)
Cooling Degree Days 15    
Growing Degree Days 30 (Base 50)    
Moisture  
Dew Point 72 °F    
Average Humidity 75    
Maximum Humidity 84    
Minimum Humidity 59    
Precipitation  
Precipitation 0.00 in 0.12 in - ()
Sea Level Pressure  
Sea Level Pressure 29.95 in    
Wind  
Wind Speed 4 mph ()    
Max Wind Speed 9 mph    
Max Gust Speed -    
Visibility 6.8 miles    
Events      
Averages and records for this station are not official NWS values.
T = Trace of Precipitation, MM = Missing Value Source: Averaged Metar Reports

Daily Weather History Graph

Daily Weather History Graph

Search for Another Location

Airport or City:

Astronomy

Nov. 28, 2014 Rise Set
Actual Time 6:25 AM AST 5:34 PM AST
Civil Twilight 6:02 AM AST 5:58 PM AST
Nautical Twilight 5:35 AM AST 6:25 PM AST
Astronomical Twilight 5:09 AM AST 6:51 PM AST
Moon 11:43 AM AST (11/28) 11:47 PM AST (11/28)
Length of Visible Light 11h 55m
Length of Day
11h 09m
Waxing Crescent, 41% of the Moon is Illuminated
Nov 28
Waxing Crescent
Nov 29
First Quarter
Dec 6
Full
Dec 14
Last Quarter
Dec 21
New

Hourly Weather History & Observations

Time (AST) Temp. Heat Index Dew Point Humidity Pressure Visibility Wind Dir Wind Speed Gust Speed Precip Events Conditions
12:00 AM 77.0 °F - 68.0 °F 74% 29.95 in 6.2 mi East 3.5 mph - N/A   Partly Cloudy
1:00 AM 77.0 °F - 69.8 °F 78% 29.95 in - Variable 1.2 mph - N/A   Clear
2:00 AM 76 °F - 70 °F 76% 29.93 in 22 mi 2.3 mph - -   Scattered Clouds
2:00 AM 75.2 °F - 69.8 °F 83% 29.92 in 6.2 mi Variable 2.3 mph - N/A   Partly Cloudy
3:00 AM 77.0 °F - 69.8 °F 78% 29.92 in 6.2 mi Variable 2.3 mph - N/A   Partly Cloudy
4:00 AM 77.0 °F - 71.6 °F 83% 29.92 in 6.2 mi Variable 2.3 mph - N/A   Mostly Cloudy
5:00 AM 77 °F - 72 °F 80% 29.93 in 22 mi 2.3 mph - -   Mostly Cloudy
5:00 AM 77.0 °F - 71.6 °F 83% 29.92 in 6.2 mi Variable 2.3 mph - N/A   Mostly Cloudy
6:00 AM 77.0 °F - 71.6 °F 83% 29.95 in 6.2 mi Variable 2.3 mph - N/A   Scattered Clouds
7:00 AM 77.0 °F - 71.6 °F 83% 29.95 in 6.2 mi Variable 2.3 mph - N/A   Scattered Clouds
8:00 AM 82 °F - 71 °F 61% 29.98 in 19 mi 3.5 mph - -   Scattered Clouds
8:00 AM 82.4 °F 86.3 °F 69.8 °F 66% 29.98 in 6.2 mi Variable 3.5 mph - N/A   Partly Cloudy
9:00 AM 82.4 °F 87.2 °F 71.6 °F 70% 29.98 in 6.2 mi East 5.8 mph - N/A   Partly Cloudy
10:00 AM 84.2 °F 89.6 °F 71.6 °F 66% 30.01 in 6.2 mi ENE 6.9 mph - N/A   Scattered Clouds
11:00 AM 84 °F - 72 °F 59% 29.99 in 22 mi East 6.9 mph - -   Partly Cloudy
11:00 AM 82.4 °F 88.2 °F 73.4 °F 74% 29.98 in 6.2 mi East 6.9 mph - N/A   Scattered Clouds
12:00 PM 84.2 °F 89.6 °F 71.6 °F 66% 29.98 in 6.2 mi East 8.1 mph - N/A   Scattered Clouds
1:00 PM 84.2 °F 90.9 °F 73.4 °F 70% 29.95 in 6.2 mi SE 8.1 mph - N/A   Scattered Clouds
2:00 PM 84 °F - 74 °F 66% 29.94 in 25 mi SE 6.9 mph - -   Partly Cloudy
3:00 PM 82.4 °F 87.2 °F 71.6 °F 70% 29.92 in 6.2 mi ESE 8.1 mph - N/A   Partly Cloudy
4:00 PM 82.4 °F 88.2 °F 73.4 °F 74% 29.92 in 6.2 mi East 9.2 mph - N/A   Partly Cloudy
5:00 PM 81 °F - 73 °F 70% 29.93 in 44 mi ESE 8.1 mph - -   Scattered Clouds
5:00 PM 80.6 °F 85.4 °F 73.4 °F 79% 29.92 in 6.2 mi ESE 8.1 mph - N/A   Partly Cloudy
6:00 PM 80.6 °F 85.4 °F 73.4 °F 79% 29.92 in 6.2 mi East 5.8 mph - N/A   Partly Cloudy
7:00 PM 80.6 °F 85.4 °F 73.4 °F 79% 29.95 in 6.2 mi ESE 4.6 mph - N/A   Partly Cloudy
8:00 PM 80 °F - 74 °F 78% 29.97 in 37 mi East 5.8 mph - -   Scattered Clouds
8:00 PM 80.6 °F 86.2 °F 75.2 °F 84% 29.95 in 6.2 mi East 5.8 mph - N/A   Partly Cloudy
9:00 PM 80.6 °F 85.4 °F 73.4 °F 79% 29.98 in 6.2 mi East 5.8 mph - N/A   Scattered Clouds
10:00 PM 80.6 °F 85.4 °F 73.4 °F 79% 29.98 in 6.2 mi East 4.6 mph - N/A   Partly Cloudy
11:00 PM 79 °F - 74 °F 80% 29.98 in 25 mi East 3.5 mph - -   Scattered Clouds
11:00 PM 78.8 °F - 73.4 °F 83% 29.98 in 6.2 mi East 3.5 mph - N/A   Partly Cloudy